Date String (YYYY-MM-DD hh:mm:ss) UTC,Instrument flags,Ambient pressure (hPa),Sample flow (lpm),Bypass flow (lpm),Sample temperature (°C),Ambient temperature (°C),ASC tube jacket temperature (°C),LED temperature (°C),Box temperature (°C),Sample RH (%),Span deviation,Mass concentration (μg/m³),Mass concentration (μg/m³),Mass concentration (μg/m³)
DateTimeUTC,F1_M11,P_M11,Q1_M11,Q2_M11,T1_M11,T2_M11,T3_M11,T4_M11,T5_M11,U1_M11,ZSPAN_M11,X0_M11,X2_M11,X1_M11
2022-01-22 07:00:00,,0833.7,4.99,0.00,22.6,21.9,00.0,31.5,24.4,16.3,-001.0,0011.97,0008.01,0007.58
2022-01-22 07:01:00,,0833.7,4.99,0.00,22.6,21.9,00.0,31.5,24.3,16.3,-001.2,0012.30,0008.22,0007.74
2022-01-22 07:02:00,,0833.7,5.00,0.00,22.6,21.9,00.0,31.5,24.3,16.4,-001.1,0012.60,0008.43,0007.93
2022-01-22 07:03:00,,0833.7,4.98,0.00,22.6,21.9,00.0,31.5,24.3,16.4,-001.0,0012.82,0008.62,0008.09
2022-01-22 07:04:00,,0833.6,5.01,0.00,22.5,21.8,00.0,31.5,24.3,16.4,-000.9,0012.67,0008.75,0008.21
2022-01-22 07:05:00,,0833.6,4.99,0.00,22.5,21.8,00.0,31.5,24.3,16.4,-000.9,0012.65,0008.84,0008.33
2022-01-22 07:06:00,,0833.6,5.01,0.00,22.5,21.8,00.0,31.5,24.3,16.5,-001.0,0012.73,0008.94,0008.44
2022-01-22 07:07:00,,0833.6,4.99,0.00,22.5,21.8,00.0,31.5,24.3,16.5,-000.9,0012.89,0009.08,0008.57
2022-01-22 07:08:00,,0833.6,5.01,0.00,22.5,21.8,00.0,31.5,24.3,16.5,-000.6,0012.91,0009.15,0008.66
2022-01-22 07:09:00,,0833.6,4.99,0.00,22.5,21.8,00.0,31.5,24.3,16.6,-000.2,0012.52,0009.30,0008.81
2022-01-22 07:10:00,,0833.6,4.99,0.00,22.5,21.8,00.0,31.4,24.2,16.6,0000.1,0012.57,0009.45,0008.98
2022-01-22 07:11:00,,0833.7,5.02,0.00,22.5,21.7,00.0,31.4,24.2,16.6,0000.0,0012.67,0009.60,0009.14
2022-01-22 07:12:00,,0833.7,4.99,0.00,22.5,21.7,00.0,31.4,24.2,16.6,0000.2,0012.97,0009.76,0009.29
2022-01-22 07:13:00,,0833.7,5.01,0.00,22.4,21.7,00.0,31.4,24.2,16.7,0000.5,0013.12,0009.84,0009.38
2022-01-22 07:14:00,,0833.7,5.01,0.00,22.4,21.7,00.0,31.4,24.2,16.7,0000.5,0013.18,0009.90,0009.45
2022-01-22 07:15:00,,0833.7,5.00,0.00,22.4,21.7,00.0,31.4,24.2,16.7,0000.1,0013.48,0010.05,0009.55
2022-01-22 07:16:00,,0833.6,4.99,0.00,22.4,21.7,00.0,31.4,24.2,16.6,0000.3,0013.76,0010.20,0009.67
2022-01-22 07:17:00,,0833.6,5.02,0.00,22.4,21.7,00.0,31.4,24.2,16.7,0000.2,0013.96,0010.32,0009.77
2022-01-22 07:18:00,,0833.6,5.00,0.00,22.4,21.7,00.0,31.4,24.2,16.7,-000.0,0014.16,0010.45,0009.88
2022-01-22 07:19:00,,0833.6,5.01,0.00,22.4,21.7,00.0,31.4,24.2,16.7,-000.2,0014.36,0010.56,0009.97
2022-01-22 07:20:00,,0833.6,5.01,0.00,22.4,21.7,00.0,31.4,24.2,16.6,-000.5,0014.47,0010.62,0010.02
2022-01-22 07:21:00,,0833.7,4.99,0.00,22.4,21.7,00.0,31.4,24.2,16.6,-000.6,0014.49,0010.62,0010.03
2022-01-22 07:22:00,,0833.7,5.01,0.00,22.4,21.7,00.0,31.4,24.2,16.6,-000.5,0014.50,0010.62,0010.04
2022-01-22 07:23:00,,0833.7,4.99,0.00,22.4,21.7,00.0,31.4,24.2,16.6,-000.4,0014.42,0010.63,0010.05
2022-01-22 07:24:00,,0833.6,5.01,0.00,22.4,21.7,00.0,31.3,24.2,16.6,-000.6,0014.28,0010.60,0010.04
2022-01-22 07:25:00,,0833.7,5.01,0.00,22.4,21.7,00.0,31.3,24.1,16.6,-000.8,0014.23,0010.58,0010.03
2022-01-22 07:26:00,,0833.6,4.99,0.00,22.4,21.7,00.0,31.3,24.1,16.6,-000.8,0014.11,0010.53,0010.01
2022-01-22 07:27:00,,0833.6,5.02,0.00,22.4,21.7,00.0,31.3,24.1,16.6,-001.0,0013.99,0010.47,0009.97
2022-01-22 07:28:00,,0833.6,4.98,0.00,22.4,21.6,00.0,31.3,24.1,16.6,-001.0,0013.94,0010.44,0009.94
2022-01-22 07:29:00,,0833.6,5.00,0.00,22.4,21.6,00.0,31.3,24.1,16.6,-001.0,0013.74,0010.34,0009.87
2022-01-22 07:30:00,,0833.6,5.01,0.00,22.4,21.6,00.0,31.3,24.1,16.6,-001.0,0013.51,0010.21,0009.78
2022-01-22 07:31:00,,0833.6,4.98,0.00,22.3,21.6,00.0,31.3,24.1,16.6,-000.8,0013.46,0010.19,0009.76
2022-01-22 07:32:00,,0833.6,5.01,0.00,22.4,21.7,00.0,31.3,24.1,16.5,-000.9,0013.48,0010.23,0009.79
2022-01-22 07:33:00,,0833.6,5.00,0.00,22.4,22.2,00.0,31.3,24.2,16.5,-000.9,0013.45,0010.22,0009.78
2022-01-22 07:34:00,,0833.6,5.00,0.00,22.6,22.9,00.0,31.4,24.5,16.4,-001.3,0013.36,0010.15,0009.75
2022-01-22 07:35:00,,0833.6,5.00,0.00,22.7,23.1,00.0,31.4,24.6,16.3,-001.4,0013.45,0010.13,0009.74
2022-01-22 07:36:00,,0833.6,5.00,0.00,22.7,22.9,00.0,31.4,24.6,16.3,-001.3,0013.60,0010.15,0009.74
2022-01-22 07:37:00,,0833.6,4.99,0.00,22.7,22.8,00.0,31.5,24.6,16.2,-001.3,0013.61,0010.15,0009.74
2022-01-22 07:38:00,,0833.6,5.01,0.00,22.7,22.6,00.0,31.5,24.6,16.2,-001.4,0013.65,0010.19,0009.76
2022-01-22 07:39:00,,0833.6,4.99,0.00,22.7,22.5,00.0,31.5,24.6,16.2,-001.5,0013.69,0010.20,0009.78
2022-01-22 07:40:00,,0833.6,5.01,0.00,22.7,22.4,00.0,31.5,24.5,16.2,-001.3,0014.15,0010.27,0009.83
2022-01-22 07:41:00,,0833.6,5.00,0.00,22.7,22.3,00.0,31.5,24.5,16.2,-001.4,0014.61,0010.36,0009.89
2022-01-22 07:42:00,,0833.6,4.99,0.00,22.7,22.2,00.0,31.5,24.5,16.2,-001.6,0014.68,0010.38,0009.92
2022-01-22 07:43:00,,0833.6,5.02,0.00,22.7,22.2,00.0,31.5,24.5,16.2,-001.6,0014.70,0010.40,0009.93
2022-01-22 07:44:00,,0833.6,4.98,0.00,22.6,22.1,00.0,31.5,24.4,16.1,-001.5,0014.70,0010.41,0009.92
2022-01-22 07:45:00,,0833.6,5.01,0.00,22.6,22.1,00.0,31.5,24.4,16.1,-001.3,0014.67,0010.40,0009.91
2022-01-22 07:46:00,,0833.6,4.99,0.00,22.6,22.0,00.0,31.5,24.4,16.1,-000.8,0014.46,0010.35,0009.88
2022-01-22 07:47:00,,0833.6,5.00,0.00,22.6,22.0,00.0,31.5,24.3,16.1,-000.9,0014.21,0010.29,0009.84
2022-01-22 07:48:00,,0833.6,5.01,0.00,22.6,22.0,00.0,31.5,24.3,16.1,-001.1,0014.09,0010.21,0009.77
2022-01-22 07:49:00,,0833.6,5.00,0.00,22.6,21.9,00.0,31.5,24.3,16.1,-000.9,0014.59,0010.09,0009.67
2022-01-22 07:50:00,,0833.6,5.00,0.00,22.5,21.9,00.0,31.5,24.3,16.1,-000.5,0014.40,0009.91,0009.50
2022-01-22 07:51:00,,0833.6,5.00,0.00,22.5,21.9,00.0,31.5,24.3,16.1,-000.4,0014.15,0009.71,0009.30
2022-01-22 07:52:00,,0833.6,5.00,0.00,22.5,21.9,00.0,31.5,24.3,16.1,-000.0,0013.23,0009.49,0009.10
2022-01-22 07:53:00,,0833.6,4.99,0.00,22.5,21.8,00.0,31.5,24.2,16.1,0000.3,0012.89,0009.28,0008.89
2022-01-22 07:54:00,,0833.6,5.01,0.00,22.5,21.8,00.0,31.5,24.2,16.1,0000.4,0012.69,0009.08,0008.66
2022-01-22 07:55:00,,0833.6,4.99,0.00,22.5,21.8,00.0,31.5,24.2,16.1,0000.6,0012.41,0008.86,0008.44
2022-01-22 07:56:00,,0833.6,5.02,0.00,22.4,21.8,00.0,31.5,24.2,16.1,0000.5,0012.20,0008.70,0008.28
2022-01-22 07:57:00,,0833.5,4.98,0.00,22.4,21.8,00.0,31.4,24.2,16.1,0000.2,0012.16,0008.64,0008.21
2022-01-22 07:58:00,,0833.6,5.01,0.00,22.4,21.8,00.0,31.4,24.2,16.1,0000.3,0012.16,0008.57,0008.13
2022-01-22 07:59:00,,0833.5,4.99,0.00,22.4,21.8,00.0,31.4,24.2,16.1,0000.6,0011.90,0008.39,0007.98
